Tracking 31027 objects as of 19-Jul-2025
HD Live streaming from Space Station
objects crossing your sky now

COSMOS 2251 DEB

Track COSMOS 2251 DEB now!
10-day predictions


NORAD ID: 34614
Int'l Code: 1993-036WK
Perigee: 703.4 km
Apogee: 999.3 km
Inclination: 73.9 °
Period: 101.8 minutes
Semi major axis: 7222 km
RCS: 0.0176 m2 (small)
Launch date: June 16, 1993
Source: Commonwealth of Independent States (former USSR) (CIS)
Launch site: PLESETSK MISSILE AND SPACE COMPLEX (PKMTR)

Note: This is SATELLITE DEBRIS
Your satellite tracking list
GEOTAIL
Track 1 satellite(s)




NASA's NSSDC Master Catalog

Two Line Element Set (TLE):
1 34614U 93036WK  25199.59187285  .00005049  00000-0  21647-2 0  9990
2 34614  73.8785 247.9116 0204865 274.9605 239.8109 14.14444572826842
Source of the keplerian elements: AFSPC